Вернуться в каталог

STARLINK-33741

АктивенСвязьVLEO
NORAD 63365·PAYLOAD·🇺🇸 United States

Запущен Mar 26, 2025 с Vandenberg Space Force Base

Loading…

Ближайшие Пролёты (ближайшие 24 часа)

TLE

СвежийSource: CelesTrak SupGP

Эпоха: Sep 15, 2026, 02:15 UTC

1 63365C 25063C   26258.09423611 -.00033000  00000+0 -97480-3 0  2584
2 63365  53.1572 247.1381 0001373  89.7873  12.3883 15.34412599    19

Отслеживайте STARLINK-33741 в реальном времени с AllMySat

Download on the App Store